Date String (YYYY-MM-DD hh:mm:ss) UTC,Instrument flags,absolute air pressure of the measurement (hPa),sample flow rate (lpm),inlet stack bypass flow (lpm),air temperature of the measurement (°C),ambient temperature measured by the external sensor (°C),aerosol sample conditioner tube jacket temperature (°C),OPC LED temperature (°C),internal box temperature (°C),relative humidity of the measurement (%),span deviation,mass concentration of particles derived from Lorenz-Mie calculation of OPC scattering (μg/m³),mass concentration of particles derived from Lorenz-Mie calculation of OPC scattering (μg/m³),mass concentration of particles derived from Lorenz-Mie calculation of OPC scattering (μg/m³)
DateTimeUTC,F1_M11,P_M11,Q1_M11,Q2_M11,T1_M11,T2_M11,T3_M11,T4_M11,T5_M11,U1_M11,ZSPAN_M11,X2_M11,X0_M11,X1_M11
2024-03-14 13:00:00,SystemResetWarning,0829.2,5.01,000.00,018.9,018.4,000.0,027.3,020.6,24.3,0000.0,0002.40,0007.28,0001.81
2024-03-14 13:01:00,SystemResetWarning,0829.2,5.00,000.00,018.8,018.0,000.0,027.3,020.4,24.5,0000.0,0002.55,0007.45,0001.87
2024-03-14 13:02:00,SystemResetWarning,0829.2,5.00,000.00,018.7,017.6,000.0,027.2,020.2,24.7,0000.0,0002.63,0007.65,0001.92
2024-03-14 13:03:00,SystemResetWarning,0829.2,4.99,000.00,018.6,017.3,000.0,027.2,020.0,24.8,0000.0,0002.70,0007.99,0001.98
2024-03-14 13:04:00,SystemResetWarning,0829.3,5.01,000.00,018.5,017.1,000.0,027.2,020.0,25.0,0000.0,0002.73,0006.34,0002.05
2024-03-14 13:05:00,SystemResetWarning,0829.3,5.01,000.00,018.4,016.9,000.0,027.2,020.0,25.1,0000.0,0002.72,0005.88,0002.09
2024-03-14 13:06:00,SystemResetWarning,0829.2,5.00,000.00,018.4,016.8,000.0,027.3,020.0,25.7,0000.0,0002.74,0005.83,0002.14
2024-03-14 13:07:00,SystemResetWarning,0829.1,5.00,000.00,018.4,016.8,000.0,027.3,020.0,26.8,0000.0,0002.78,0005.79,0002.19
2024-03-14 13:08:00,SystemResetWarning,0829.3,5.02,000.00,018.5,017.7,000.0,027.3,020.5,25.8,0000.0,0002.86,0006.06,0002.26
2024-03-14 13:09:00,SystemResetWarning,0829.4,5.00,000.00,018.7,018.8,000.0,027.4,021.1,25.1,0000.0,0002.92,0007.63,0002.31
2024-03-14 13:10:00,SystemResetWarning,0829.4,5.00,000.00,019.0,019.4,000.0,027.4,021.3,24.6,0000.0,0002.93,0008.07,0002.37
2024-03-14 13:11:00,SystemResetWarning,0829.4,4.99,000.00,019.0,019.0,000.0,027.4,021.0,24.4,0000.0,0002.93,0008.03,0002.40
2024-03-14 13:12:00,SystemResetWarning,0829.4,5.02,000.00,018.9,018.5,000.0,027.3,020.7,24.5,0000.0,0002.85,0007.88,0002.40
2024-03-14 13:13:00,SystemResetWarning,0829.3,5.01,000.00,018.8,018.1,000.0,027.3,020.4,24.6,0000.0,0002.88,0007.78,0002.43
2024-03-14 13:14:00,SystemResetWarning,0829.3,4.99,000.00,018.7,017.7,000.0,027.3,020.2,24.6,0000.0,0002.95,0007.56,0002.47
2024-03-14 13:15:00,SystemResetWarning,0829.4,4.99,000.00,018.6,017.4,000.0,027.2,020.1,24.8,0000.0,0002.98,0007.32,0002.51
2024-03-14 13:16:00,SystemResetWarning,0829.4,5.01,000.00,018.5,017.1,000.0,027.3,020.0,24.9,0000.0,0003.05,0007.46,0002.56
2024-03-14 13:17:00,SystemResetWarning,0829.4,5.00,000.00,018.5,016.9,000.0,027.3,020.0,25.0,0000.0,0003.14,0007.57,0002.66
2024-03-14 13:18:00,SystemResetWarning,0829.3,5.00,000.00,018.4,016.9,000.0,027.3,020.0,25.0,0000.0,0003.23,0007.71,0002.78
2024-03-14 13:19:00,SystemResetWarning,0829.4,5.00,000.00,018.5,017.6,000.0,027.4,020.4,25.0,0000.0,0003.30,0007.83,0002.88
2024-03-14 13:20:00,SystemResetWarning,0829.4,5.00,000.00,018.7,018.7,000.0,027.4,021.0,24.6,0000.0,0003.37,0007.73,0002.95
2024-03-14 13:21:00,SystemResetWarning,0829.5,4.99,000.00,018.9,018.9,000.0,027.4,021.1,24.3,0000.0,0003.43,0007.46,0003.02
2024-03-14 13:22:00,SystemResetWarning,0829.5,4.99,000.00,018.9,018.5,000.0,027.4,020.8,24.3,0000.0,0003.49,0007.57,0003.10
2024-03-14 13:23:00,SystemResetWarning,0829.4,5.00,000.00,018.8,018.2,000.0,027.3,020.5,24.3,0000.0,0003.59,0007.75,0003.16
2024-03-14 13:24:00,SystemResetWarning,0829.4,5.01,000.00,018.7,017.7,000.0,027.3,020.2,24.4,0000.0,0003.65,0008.20,0003.22
2024-03-14 13:25:00,SystemResetWarning,0829.4,5.00,000.00,018.6,017.4,000.0,027.2,020.1,24.5,0000.0,0003.69,0008.88,0003.27
2024-03-14 13:26:00,SystemResetWarning,0829.5,5.00,000.00,018.5,017.1,000.0,027.3,020.0,24.7,0000.0,0003.74,0009.23,0003.32
2024-03-14 13:27:00,SystemResetWarning,0829.5,5.00,000.00,018.4,016.9,000.0,027.3,020.0,24.7,0000.0,0003.79,0009.20,0003.36
2024-03-14 13:28:00,SystemResetWarning,0829.5,5.00,000.00,018.4,016.8,000.0,027.3,020.0,24.8,0000.0,0003.82,0009.37,0003.38
2024-03-14 13:29:00,SystemResetWarning,0829.5,5.01,000.00,018.4,017.4,000.0,027.3,020.3,24.7,0000.0,0003.83,0009.71,0003.39
2024-03-14 13:30:00,SystemResetWarning,0829.6,5.00,000.00,018.7,018.5,000.0,027.4,020.9,24.3,0000.0,0003.80,0009.40,0003.38
2024-03-14 13:31:00,SystemResetWarning,0829.7,4.99,000.00,019.0,019.3,000.0,027.5,021.4,23.9,0000.0,0003.79,0008.64,0003.39
2024-03-14 13:32:00,SystemResetWarning,0829.7,5.00,000.00,019.1,019.1,000.0,027.4,021.2,23.7,0000.0,0003.80,0008.90,0003.41
2024-03-14 13:33:00,SystemResetWarning,0829.6,5.00,000.00,019.0,018.6,000.0,027.4,020.8,23.8,0000.0,0003.84,0009.14,0003.43
2024-03-14 13:34:00,SystemResetWarning,0829.6,5.00,000.00,018.9,018.2,000.0,027.4,020.6,23.8,0000.0,0003.84,0010.42,0003.43
2024-03-14 13:35:00,SystemResetWarning,0829.6,5.00,000.00,018.8,017.8,000.0,027.3,020.3,23.9,0000.0,0003.84,0010.61,0003.44
2024-03-14 13:36:00,SystemResetWarning,0829.6,5.00,000.00,018.7,017.4,000.0,027.3,020.2,24.0,0000.0,0003.84,0010.21,0003.44
2024-03-14 13:37:00,SystemResetWarning,0829.7,5.00,000.00,018.6,017.2,000.0,027.3,020.0,24.1,0000.0,0003.82,0010.70,0003.43
2024-03-14 13:38:00,SystemResetWarning,0829.7,5.00,000.00,018.5,017.0,000.0,027.3,020.0,24.2,0000.0,0003.83,0010.96,0003.43
2024-03-14 13:39:00,SystemResetWarning,0829.7,5.00,000.00,018.5,016.8,000.0,027.3,020.0,24.3,0000.0,0003.84,0010.89,0003.44
2024-03-14 13:40:00,SystemResetWarning,0829.7,5.00,000.00,018.4,016.8,000.0,027.3,020.0,24.3,0000.0,0003.82,0010.70,0003.44
2024-03-14 13:41:00,SystemResetWarning,0829.7,5.02,000.00,018.5,017.7,000.0,027.4,020.5,24.2,0000.0,0003.85,0011.07,0003.45
2024-03-14 13:42:00,SystemResetWarning,0829.8,4.99,000.00,018.8,018.8,000.0,027.4,021.1,23.8,0000.0,0003.85,0011.33,0003.44
2024-03-14 13:43:00,SystemResetWarning,0829.7,4.98,000.00,018.9,018.9,000.0,027.4,021.0,23.5,0000.0,0003.84,0011.12,0003.44
2024-03-14 13:44:00,SystemResetWarning,0829.7,5.01,000.00,018.9,018.5,000.0,027.4,020.7,23.5,0000.0,0003.82,0011.42,0003.44
2024-03-14 13:45:00,SystemResetWarning,0829.7,5.01,000.00,018.8,018.0,000.0,027.3,020.4,23.6,0000.0,0003.85,0011.10,0003.44
2024-03-14 13:46:00,SystemResetWarning,0829.7,5.00,000.00,018.7,017.6,000.0,027.3,020.2,23.7,0000.0,0003.85,0011.57,0003.44
2024-03-14 13:47:00,SystemResetWarning,0829.7,4.99,000.00,018.6,017.3,000.0,027.3,020.0,23.8,0000.0,0003.87,0011.71,0003.42
2024-03-14 13:48:00,SystemResetWarning,0829.8,5.00,000.00,018.5,017.1,000.0,027.3,020.0,23.8,0000.0,0003.90,0011.01,0003.42
2024-03-14 13:49:00,SystemResetWarning,0829.8,5.00,000.00,018.5,016.9,000.0,027.3,020.0,23.9,0000.0,0003.90,0010.74,0003.42
2024-03-14 13:50:00,SystemResetWarning,0829.8,5.00,000.00,018.4,016.8,000.0,027.3,020.0,24.0,0000.0,0003.89,0011.20,0003.40
2024-03-14 13:51:00,SystemResetWarning,0829.9,5.02,000.00,018.5,017.6,000.0,027.3,020.4,23.9,0000.0,0003.89,0011.19,0003.39
2024-03-14 13:52:00,SystemResetWarning,0830.0,4.99,000.00,018.7,018.7,000.0,027.4,021.0,23.6,0000.0,0003.88,0010.83,0003.37
2024-03-14 13:53:00,SystemResetWarning,0830.0,4.98,000.00,018.9,019.0,000.0,027.4,021.1,23.2,0000.0,0003.90,0010.54,0003.36
2024-03-14 13:54:00,SystemResetWarning,0829.9,5.00,000.00,018.9,018.6,000.0,027.4,020.8,23.1,0000.0,0003.89,0010.43,0003.35
2024-03-14 13:55:00,SystemResetWarning,0830.0,4.99,000.00,018.8,018.3,000.0,027.3,020.5,23.2,0000.0,0003.86,0010.11,0003.33
2024-03-14 13:56:00,SystemResetWarning,0830.0,5.00,000.00,018.7,017.9,000.0,027.3,020.3,23.3,0000.0,0003.83,0009.36,0003.30
2024-03-14 13:57:00,SystemResetWarning,0830.0,5.00,000.00,018.7,017.6,000.0,027.3,020.1,23.5,0000.0,0003.82,0008.41,0003.29
2024-03-14 13:58:00,SystemResetWarning,0830.0,5.00,000.00,018.6,017.3,000.0,027.2,020.0,23.6,0000.0,0003.79,0007.90,0003.28
2024-03-14 13:59:00,SystemResetWarning,0830.0,5.00,000.00,018.5,017.1,000.0,027.3,020.0,23.6,0000.0,0003.75,0008.25,0003.26
